Time,TemperatureF,DewpointF,PressureIn,WindDirection,WindDirectionDegrees,WindSpeedMPH,WindSpeedGustMPH,Humidity,HourlyPrecipIn,Conditions,Clouds,dailyrainin,SoftwareType,DateUTC
2013-09-15 00:01:00,56.3,52.4,30.07,East,90,0.0,0.0,87,0.00,,,0.00,WUHU21623XXSP,2013-09-15 04:01:00,
2013-09-15 00:06:00,56.3,52.4,30.07,East,90,0.0,0.0,87,0.00,,,0.00,WUHU21623XXSP,2013-09-15 04:06:00,
2013-09-15 00:11:00,56.3,52.4,30.07,East,90,0.0,0.0,87,0.00,,,0.00,WUHU21623XXSP,2013-09-15 04:11:00,
2013-09-15 00:16:00,56.3,52.4,30.07,East,90,0.0,0.0,87,0.00,,,0.00,WUHU21623XXSP,2013-09-15 04:16:00,
2013-09-15 00:21:00,56.1,52.3,30.07,East,90,0.0,0.0,87,0.00,,,0.00,WUHU21623XXSP,2013-09-15 04:21:00,
2013-09-15 00:26:00,56.1,52.3,30.07,ESE,112,0.0,0.0,87,0.00,,,0.00,WUHU21623XXSP,2013-09-15 04:26:00,
2013-09-15 00:31:00,56.1,52.3,30.07,East,90,0.0,0.0,87,0.00,,,0.00,WUHU21623XXSP,2013-09-15 04:31:00,
2013-09-15 00:36:00,56.1,52.6,30.07,ESE,112,0.0,0.0,88,0.00,,,0.00,WUHU21623XXSP,2013-09-15 04:36:00,
2013-09-15 00:42:00,55.9,52.4,30.07,East,90,0.0,0.0,88,0.00,,,0.00,WUHU21623XXSP,2013-09-15 04:42:00,
2013-09-15 00:47:00,55.9,52.4,30.07,ESE,112,0.0,0.0,88,0.00,,,0.00,WUHU21623XXSP,2013-09-15 04:47:00,
2013-09-15 00:52:00,55.9,52.4,30.07,East,90,0.0,0.0,88,0.00,,,0.00,WUHU21623XXSP,2013-09-15 04:52:00,
2013-09-15 00:57:00,55.9,52.4,30.07,East,90,0.0,0.0,88,0.00,,,0.00,WUHU21623XXSP,2013-09-15 04:57:00,
2013-09-15 01:02:00,55.9,52.4,30.07,East,90,0.0,0.0,88,0.00,,,0.00,WUHU21623XXSP,2013-09-15 05:02:00,
2013-09-15 01:07:00,55.9,52.4,30.07,South,180,0.0,0.0,88,0.00,,,0.00,WUHU21623XXSP,2013-09-15 05:07:00,
2013-09-15 01:12:00,55.9,52.4,30.07,ESE,112,0.0,0.0,88,0.00,,,0.00,WUHU21623XXSP,2013-09-15 05:12:00,
2013-09-15 01:17:00,55.9,52.4,30.07,ESE,112,0.0,0.0,88,0.00,,,0.00,WUHU21623XXSP,2013-09-15 05:17:00,
2013-09-15 01:22:00,55.9,52.4,30.07,ESE,112,0.0,0.0,88,0.00,,,0.00,WUHU21623XXSP,2013-09-15 05:22:00,
2013-09-15 01:27:00,55.8,52.2,30.07,East,90,0.0,0.0,88,0.00,,,0.00,WUHU21623XXSP,2013-09-15 05:27:00,
2013-09-15 01:32:00,55.8,52.2,30.07,East,90,0.0,0.0,88,0.00,,,0.00,WUHU21623XXSP,2013-09-15 05:32:00,
2013-09-15 01:37:00,55.9,52.4,30.07,NNE,22,0.0,0.0,88,0.00,,,0.00,WUHU21623XXSP,2013-09-15 05:37:00,
2013-09-15 01:42:00,55.9,52.4,30.07,East,90,0.0,0.0,88,0.00,,,0.00,WUHU21623XXSP,2013-09-15 05:42:00,
2013-09-15 01:47:00,55.9,52.4,30.07,NNE,22,0.0,0.0,88,0.00,,,0.00,WUHU21623XXSP,2013-09-15 05:47:00,
2013-09-15 01:52:00,55.9,52.4,30.07,East,90,0.0,0.0,88,0.00,,,0.00,WUHU21623XXSP,2013-09-15 05:52:00,
2013-09-15 01:57:00,55.9,52.4,30.08,East,90,0.0,0.0,88,0.00,,,0.00,WUHU21623XXSP,2013-09-15 05:57:00,
2013-09-15 02:02:00,55.6,52.1,30.08,East,90,0.0,0.0,88,0.00,,,0.00,WUHU21623XXSP,2013-09-15 06:02:00,
2013-09-15 02:07:00,55.6,52.1,30.08,East,90,0.0,0.0,88,0.00,,,0.00,WUHU21623XXSP,2013-09-15 06:07:00,
2013-09-15 02:12:00,55.6,52.1,30.08,East,90,0.0,0.0,88,0.00,,,0.00,WUHU21623XXSP,2013-09-15 06:12:00,
2013-09-15 02:17:00,55.4,51.9,30.08,ESE,112,0.0,0.0,88,0.00,,,0.00,WUHU21623XXSP,2013-09-15 06:17:00,
2013-09-15 02:22:00,55.4,51.9,30.08,East,90,0.0,0.0,88,0.00,,,0.00,WUHU21623XXSP,2013-09-15 06:22:00,
2013-09-15 02:27:00,55.2,51.7,30.08,East,90,0.0,0.0,88,0.00,,,0.00,WUHU21623XXSP,2013-09-15 06:27:00,
2013-09-15 02:32:00,55.2,51.7,30.08,ESE,112,0.0,0.0,88,0.00,,,0.00,WUHU21623XXSP,2013-09-15 06:32:00,
2013-09-15 02:37:00,55.0,51.8,30.08,ESE,112,0.0,0.0,89,0.00,,,0.00,WUHU21623XXSP,2013-09-15 06:37:00,
2013-09-15 02:42:00,55.0,51.8,30.08,ESE,112,0.0,0.0,89,0.00,,,0.00,WUHU21623XXSP,2013-09-15 06:42:00,
2013-09-15 02:47:00,54.9,51.7,30.08,North,0,0.0,0.0,89,0.00,,,0.00,WUHU21623XXSP,2013-09-15 06:47:00,
2013-09-15 02:52:00,54.7,51.5,30.08,ESE,112,0.0,0.0,89,0.00,,,0.00,WUHU21623XXSP,2013-09-15 06:52:00,
2013-09-15 02:57:00,54.7,51.5,30.08,South,180,0.0,0.0,89,0.00,,,0.00,WUHU21623XXSP,2013-09-15 06:57:00,
2013-09-15 03:02:00,54.5,51.3,30.08,ESE,112,0.0,0.0,89,0.00,,,0.00,WUHU21623XXSP,2013-09-15 07:02:00,
2013-09-15 03:08:00,54.5,51.3,30.08,ESE,112,0.0,0.0,89,0.00,,,0.00,WUHU21623XXSP,2013-09-15 07:08:00,
2013-09-15 03:13:00,54.3,51.1,30.08,East,90,0.0,0.0,89,0.00,,,0.00,WUHU21623XXSP,2013-09-15 07:13:00,
2013-09-15 03:18:00,54.3,51.1,30.08,ESE,112,0.0,0.0,89,0.00,,,0.00,WUHU21623XXSP,2013-09-15 07:18:00,
2013-09-15 03:23:00,54.3,51.1,30.09,East,90,0.0,0.0,89,0.00,,,0.00,WUHU21623XXSP,2013-09-15 07:23:00,
2013-09-15 03:28:00,54.1,50.9,30.09,ESE,112,0.0,0.0,89,0.00,,,0.00,WUHU21623XXSP,2013-09-15 07:28:00,
2013-09-15 03:33:00,54.1,50.9,30.08,ESE,112,0.0,0.0,89,0.00,,,0.00,WUHU21623XXSP,2013-09-15 07:33:00,
2013-09-15 03:38:00,54.1,50.9,30.09,East,90,0.0,0.0,89,0.00,,,0.00,WUHU21623XXSP,2013-09-15 07:38:00,
2013-09-15 03:43:00,54.1,50.9,30.08,ESE,112,0.0,0.0,89,0.00,,,0.00,WUHU21623XXSP,2013-09-15 07:43:00,
2013-09-15 03:48:00,54.0,50.8,30.09,ESE,112,0.0,0.0,89,0.00,,,0.00,WUHU21623XXSP,2013-09-15 07:48:00,
2013-09-15 03:53:00,54.0,50.8,30.08,ESE,112,0.0,0.0,89,0.00,,,0.00,WUHU21623XXSP,2013-09-15 07:53:00,
2013-09-15 03:58:00,54.0,50.8,30.08,East,90,0.0,0.0,89,0.00,,,0.00,WUHU21623XXSP,2013-09-15 07:58:00,
2013-09-15 04:03:00,54.0,50.8,30.09,South,180,0.0,0.0,89,0.00,,,0.00,WUHU21623XXSP,2013-09-15 08:03:00,
2013-09-15 04:08:00,54.1,50.9,30.09,South,180,0.0,0.0,89,0.00,,,0.00,WUHU21623XXSP,2013-09-15 08:08:00,
2013-09-15 04:13:00,54.1,50.9,30.09,South,180,0.0,0.0,89,0.00,,,0.00,WUHU21623XXSP,2013-09-15 08:13:00,
2013-09-15 04:18:00,54.1,50.9,30.09,ESE,112,0.0,0.0,89,0.00,,,0.00,WUHU21623XXSP,2013-09-15 08:18:00,
2013-09-15 04:23:00,54.3,51.1,30.09,East,90,0.0,0.0,89,0.00,,,0.00,WUHU21623XXSP,2013-09-15 08:23:00,
2013-09-15 04:28:00,54.3,51.1,30.09,ESE,112,0.0,0.0,89,0.00,,,0.00,WUHU21623XXSP,2013-09-15 08:28:00,
2013-09-15 04:33:00,54.3,51.1,30.10,East,90,0.0,0.0,89,0.00,,,0.00,WUHU21623XXSP,2013-09-15 08:33:00,
2013-09-15 04:38:00,54.5,51.3,30.10,East,90,0.0,0.0,89,0.00,,,0.00,WUHU21623XXSP,2013-09-15 08:38:00,
2013-09-15 04:43:00,54.7,51.5,30.10,South,180,0.0,0.0,89,0.00,,,0.00,WUHU21623XXSP,2013-09-15 08:43:00,
2013-09-15 04:48:00,54.7,51.5,30.10,SSW,202,0.0,0.0,89,0.00,,,0.00,WUHU21623XXSP,2013-09-15 08:48:00,
2013-09-15 04:53:00,55.0,51.8,30.10,South,180,0.0,0.0,89,0.00,,,0.00,WUHU21623XXSP,2013-09-15 08:53:00,
2013-09-15 04:58:00,55.2,52.0,30.10,SSW,202,0.0,0.0,89,0.00,,,0.00,WUHU21623XXSP,2013-09-15 08:58:00,
2013-09-15 05:03:00,55.2,52.0,30.10,SSW,202,0.0,0.0,89,0.00,,,0.00,WUHU21623XXSP,2013-09-15 09:03:00,
2013-09-15 05:08:00,55.4,52.2,30.10,ESE,112,0.0,0.0,89,0.00,,,0.00,WUHU21623XXSP,2013-09-15 09:08:00,
2013-09-15 05:13:00,55.4,52.2,30.11,ESE,112,0.0,0.0,89,0.00,,,0.00,WUHU21623XXSP,2013-09-15 09:13:00,
2013-09-15 05:18:00,55.4,52.2,30.11,ESE,112,0.0,0.0,89,0.00,,,0.00,WUHU21623XXSP,2013-09-15 09:18:00,
2013-09-15 05:23:00,55.4,52.2,30.11,South,180,0.0,0.0,89,0.00,,,0.00,WUHU21623XXSP,2013-09-15 09:23:00,
2013-09-15 05:28:00,55.4,52.2,30.11,South,180,0.0,0.0,89,0.00,,,0.00,WUHU21623XXSP,2013-09-15 09:28:00,
2013-09-15 05:33:00,55.4,52.2,30.11,South,180,0.0,0.0,89,0.00,,,0.00,WUHU21623XXSP,2013-09-15 09:33:00,
2013-09-15 05:39:00,55.6,52.4,30.11,ESE,112,0.0,0.0,89,0.00,,,0.00,WUHU21623XXSP,2013-09-15 09:39:00,
2013-09-15 05:44:00,55.6,52.4,30.11,South,180,0.0,0.0,89,0.00,,,0.00,WUHU21623XXSP,2013-09-15 09:44:00,
2013-09-15 05:49:00,55.6,52.4,30.11,South,180,0.0,0.0,89,0.00,,,0.00,WUHU21623XXSP,2013-09-15 09:49:00,
2013-09-15 05:54:00,55.6,52.4,30.11,South,180,0.0,0.0,89,0.00,,,0.00,WUHU21623XXSP,2013-09-15 09:54:00,
2013-09-15 05:59:00,55.6,52.4,30.11,West,270,0.0,0.0,89,0.00,,,0.00,WUHU21623XXSP,2013-09-15 09:59:00,
2013-09-15 06:04:00,55.8,52.6,30.11,West,270,0.0,0.0,89,0.00,,,0.00,WUHU21623XXSP,2013-09-15 10:04:00,
2013-09-15 06:09:00,55.8,52.6,30.11,ESE,112,0.0,0.0,89,0.00,,,0.00,WUHU21623XXSP,2013-09-15 10:09:00,
2013-09-15 06:14:00,55.8,52.6,30.11,ESE,112,0.0,0.0,89,0.00,,,0.00,WUHU21623XXSP,2013-09-15 10:14:00,
2013-09-15 06:19:00,55.9,52.7,30.11,ESE,112,0.0,0.0,89,0.00,,,0.00,WUHU21623XXSP,2013-09-15 10:19:00,
2013-09-15 06:24:00,55.9,52.7,30.11,South,180,0.0,0.0,89,0.00,,,0.00,WUHU21623XXSP,2013-09-15 10:24:00,
2013-09-15 06:29:00,55.9,52.7,30.11,SSW,202,0.0,0.0,89,0.00,,,0.00,WUHU21623XXSP,2013-09-15 10:29:00,
2013-09-15 06:34:00,55.8,52.6,30.12,ESE,112,0.0,0.0,89,0.00,,,0.00,WUHU21623XXSP,2013-09-15 10:34:00,
2013-09-15 06:39:00,55.8,52.6,30.12,ESE,112,0.0,0.0,89,0.00,,,0.00,WUHU21623XXSP,2013-09-15 10:39:00,
2013-09-15 06:44:00,55.6,52.4,30.12,East,90,0.0,0.0,89,0.00,,,0.00,WUHU21623XXSP,2013-09-15 10:44:00,
2013-09-15 06:49:00,55.6,52.4,30.12,South,180,0.0,0.0,89,0.00,,,0.00,WUHU21623XXSP,2013-09-15 10:49:00,
2013-09-15 06:54:00,55.6,52.4,30.13,SSW,202,0.0,0.0,89,0.00,,,0.00,WUHU21623XXSP,2013-09-15 10:54:00,
2013-09-15 06:59:00,55.8,52.6,30.13,ESE,112,0.0,0.0,89,0.00,,,0.00,WUHU21623XXSP,2013-09-15 10:59:00,
2013-09-15 07:04:00,55.8,52.6,30.13,West,270,0.0,0.0,89,0.00,,,0.00,WUHU21623XXSP,2013-09-15 11:04:00,
2013-09-15 07:09:00,55.8,52.6,30.13,West,270,0.0,0.0,89,0.00,,,0.00,WUHU21623XXSP,2013-09-15 11:09:00,
2013-09-15 07:14:00,55.8,52.6,30.13,SSW,202,0.0,0.0,89,0.00,,,0.00,WUHU21623XXSP,2013-09-15 11:14:00,
2013-09-15 07:19:00,55.8,52.6,30.13,South,180,0.0,0.0,89,0.00,,,0.00,WUHU21623XXSP,2013-09-15 11:19:00,
2013-09-15 07:24:00,55.6,52.4,30.13,ESE,112,0.0,0.0,89,0.00,,,0.00,WUHU21623XXSP,2013-09-15 11:24:00,
2013-09-15 07:29:00,55.6,52.4,30.13,South,180,0.0,0.0,89,0.00,,,0.00,WUHU21623XXSP,2013-09-15 11:29:00,
2013-09-15 07:34:00,55.6,52.4,30.13,ESE,112,0.0,0.0,89,0.00,,,0.00,WUHU21623XXSP,2013-09-15 11:34:00,
2013-09-15 07:39:00,55.8,52.6,30.13,ESE,112,0.0,0.0,89,0.00,,,0.00,WUHU21623XXSP,2013-09-15 11:39:00,
2013-09-15 07:44:00,55.8,52.6,30.14,ESE,112,0.0,0.0,89,0.00,,,0.00,WUHU21623XXSP,2013-09-15 11:44:00,
2013-09-15 07:49:00,55.9,52.7,30.13,East,90,0.0,0.0,89,0.00,,,0.00,WUHU21623XXSP,2013-09-15 11:49:00,
2013-09-15 07:54:00,56.1,52.6,30.14,South,180,0.0,0.0,88,0.00,,,0.00,WUHU21623XXSP,2013-09-15 11:54:00,
2013-09-15 07:59:00,56.3,52.8,30.14,ESE,112,0.0,0.0,88,0.00,,,0.00,WUHU21623XXSP,2013-09-15 11:59:00,
2013-09-15 08:04:00,56.7,53.1,30.14,ESE,112,0.0,0.0,88,0.00,,,0.00,WUHU21623XXSP,2013-09-15 12:04:00,
2013-09-15 08:09:00,57.0,53.5,30.14,East,90,0.0,0.0,88,0.00,,,0.00,WUHU21623XXSP,2013-09-15 12:09:00,
2013-09-15 08:14:00,57.4,54.2,30.14,West,270,0.0,0.0,89,0.00,,,0.00,WUHU21623XXSP,2013-09-15 12:14:00,
2013-09-15 08:19:00,57.9,54.7,30.14,NNE,22,0.0,0.0,89,0.00,,,0.00,WUHU21623XXSP,2013-09-15 12:19:00,
2013-09-15 08:24:00,58.1,54.9,30.14,North,0,0.0,0.0,89,0.00,,,0.00,WUHU21623XXSP,2013-09-15 12:24:00,
2013-09-15 08:29:00,58.3,55.1,30.14,North,0,0.0,0.0,89,0.00,,,0.00,WUHU21623XXSP,2013-09-15 12:29:00,
2013-09-15 08:35:00,58.6,55.4,30.14,NNE,22,0.0,0.0,89,0.00,,,0.00,WUHU21623XXSP,2013-09-15 12:35:00,
2013-09-15 08:40:00,58.6,55.4,30.14,North,0,0.0,0.0,89,0.00,,,0.00,WUHU21623XXSP,2013-09-15 12:40:00,
2013-09-15 08:45:00,58.8,55.6,30.14,North,0,0.0,0.0,89,0.00,,,0.00,WUHU21623XXSP,2013-09-15 12:45:00,
2013-09-15 08:50:00,58.8,55.6,30.14,North,0,0.0,0.0,89,0.00,,,0.00,WUHU21623XXSP,2013-09-15 12:50:00,
2013-09-15 08:55:00,59.5,56.3,30.15,East,90,0.0,0.0,89,0.00,,,0.00,WUHU21623XXSP,2013-09-15 12:55:00,
2013-09-15 09:00:00,59.9,56.7,30.15,NNE,22,0.0,0.0,89,0.00,,,0.00,WUHU21623XXSP,2013-09-15 13:00:00,
2013-09-15 09:05:00,60.4,56.9,30.15,North,0,0.0,0.0,88,0.00,,,0.00,WUHU21623XXSP,2013-09-15 13:05:00,
2013-09-15 09:10:00,61.0,57.4,30.15,North,0,0.0,0.0,88,0.00,,,0.00,WUHU21623XXSP,2013-09-15 13:10:00,
2013-09-15 09:15:00,61.3,57.8,30.15,NNE,22,0.0,0.0,88,0.00,,,0.00,WUHU21623XXSP,2013-09-15 13:15:00,
2013-09-15 09:20:00,61.5,57.6,30.15,North,0,0.0,0.0,87,0.00,,,0.00,WUHU21623XXSP,2013-09-15 13:20:00,
2013-09-15 09:25:00,61.9,58.0,30.15,WNW,292,0.0,0.0,87,0.00,,,0.00,WUHU21623XXSP,2013-09-15 13:25:00,
2013-09-15 09:30:00,62.4,58.5,30.15,North,0,0.0,0.0,87,0.00,,,0.00,WUHU21623XXSP,2013-09-15 13:30:00,
2013-09-15 09:35:00,63.1,58.9,30.14,NNE,22,0.0,0.0,86,0.00,,,0.00,WUHU21623XXSP,2013-09-15 13:35:00,
2013-09-15 09:40:00,63.5,59.3,30.15,North,0,0.0,0.0,86,0.00,,,0.00,WUHU21623XXSP,2013-09-15 13:40:00,
2013-09-15 09:45:00,64.2,59.6,30.15,North,0,0.0,0.0,85,0.00,,,0.00,WUHU21623XXSP,2013-09-15 13:45:00,
2013-09-15 09:50:00,64.9,60.0,30.15,North,0,0.0,0.0,84,0.00,,,0.00,WUHU21623XXSP,2013-09-15 13:50:00,
2013-09-15 09:55:00,66.0,61.0,30.15,North,0,0.0,0.0,84,0.00,,,0.00,WUHU21623XXSP,2013-09-15 13:55:00,
2013-09-15 10:00:00,66.9,61.3,30.15,WNW,292,0.0,0.0,82,0.00,,,0.00,WUHU21623XXSP,2013-09-15 14:00:00,
2013-09-15 10:05:00,67.8,61.8,30.15,North,0,0.0,0.0,81,0.00,,,0.00,WUHU21623XXSP,2013-09-15 14:05:00,
2013-09-15 10:10:00,68.5,61.8,30.15,North,0,0.0,0.0,79,0.00,,,0.00,WUHU21623XXSP,2013-09-15 14:10:00,
2013-09-15 10:15:00,68.7,61.6,30.15,WNW,292,0.0,0.0,78,0.00,,,0.00,WUHU21623XXSP,2013-09-15 14:15:00,
2013-09-15 10:20:00,68.2,60.7,30.15,NNE,22,0.0,3.0,77,0.00,,,0.00,WUHU21623XXSP,2013-09-15 14:20:00,
2013-09-15 10:25:00,67.8,61.1,30.16,North,0,0.0,3.0,79,0.00,,,0.00,WUHU21623XXSP,2013-09-15 14:25:00,
2013-09-15 10:30:00,68.7,62.0,30.16,East,90,0.0,0.0,79,0.00,,,0.00,WUHU21623XXSP,2013-09-15 14:30:00,
2013-09-15 10:36:00,70.0,61.6,30.15,NNE,22,0.0,1.7,75,0.00,,,0.00,WUHU21623XXSP,2013-09-15 14:36:00,
2013-09-15 10:46:00,71.4,62.3,30.16,West,270,0.0,1.3,73,0.00,,,0.00,WUHU21623XXSP,2013-09-15 14:46:00,
2013-09-15 10:51:00,72.5,63.4,30.15,North,0,0.0,1.3,73,0.00,,,0.00,WUHU21623XXSP,2013-09-15 14:51:00,
2013-09-15 10:56:00,73.9,64.0,30.16,West,270,1.2,1.9,71,0.00,,,0.00,WUHU21623XXSP,2013-09-15 14:56:00,
2013-09-15 11:01:00,73.9,63.2,30.16,North,0,0.0,1.9,69,0.00,,,0.00,WUHU21623XXSP,2013-09-15 15:01:00,
2013-09-15 11:06:00,74.5,62.9,30.15,South,180,2.1,2.4,69,0.00,,,0.00,WUHU21623XXSP,2013-09-15 15:06:00,
2013-09-15 11:11:00,74.8,64.0,30.15,WNW,292,1.2,2.4,69,0.00,,,0.00,WUHU21623XXSP,2013-09-15 15:11:00,
2013-09-15 11:16:00,75.7,64.0,30.15,West,270,1.2,2.4,67,0.00,,,0.00,WUHU21623XXSP,2013-09-15 15:16:00,
2013-09-15 11:21:00,76.5,65.1,30.16,WNW,292,1.7,2.4,68,0.00,,,0.00,WUHU21623XXSP,2013-09-15 15:21:00,
2013-09-15 11:26:00,76.8,64.6,30.16,WNW,292,1.2,2.4,66,0.00,,,0.00,WUHU21623XXSP,2013-09-15 15:26:00,
2013-09-15 11:36:00,77.2,64.9,30.15,West,270,1.2,2.7,66,0.00,,,0.00,WUHU21623XXSP,2013-09-15 15:36:00,
2013-09-15 11:41:00,76.6,64.4,30.15,WNW,292,0.0,5.1,66,0.00,,,0.00,WUHU21623XXSP,2013-09-15 15:41:00,
2013-09-15 11:46:00,75.9,64.1,30.15,West,270,0.0,5.1,67,0.00,,,0.00,WUHU21623XXSP,2013-09-15 15:46:00,
2013-09-15 11:51:00,76.3,64.5,30.15,West,270,1.2,4.1,67,0.00,,,0.00,WUHU21623XXSP,2013-09-15 15:51:00,
2013-09-15 11:56:00,76.3,64.1,30.15,WNW,292,0.0,1.3,66,0.00,,,0.00,WUHU21623XXSP,2013-09-15 15:56:00,
2013-09-15 12:01:00,77.4,64.7,30.15,WNW,292,0.0,1.3,65,0.00,,,0.00,WUHU21623XXSP,2013-09-15 16:01:00,
2013-09-15 12:06:00,77.4,64.7,30.15,WNW,292,1.7,2.4,65,0.00,,,0.00,WUHU21623XXSP,2013-09-15 16:06:00,
2013-09-15 12:11:00,77.9,64.7,30.14,SSW,202,2.6,3.0,64,0.00,,,0.00,WUHU21623XXSP,2013-09-15 16:11:00,
2013-09-15 12:16:00,78.4,65.2,30.15,WNW,292,1.4,3.0,64,0.00,,,0.00,WUHU21623XXSP,2013-09-15 16:16:00,
2013-09-15 12:21:00,79.2,65.0,30.14,North,0,0.0,3.0,62,0.00,,,0.00,WUHU21623XXSP,2013-09-15 16:21:00,
2013-09-15 12:26:00,79.0,65.3,30.14,WNW,292,1.7,1.9,63,0.00,,,0.00,WUHU21623XXSP,2013-09-15 16:26:00,
2013-09-15 12:31:00,78.8,65.2,30.14,WNW,292,0.0,1.9,63,0.00,,,0.00,WUHU21623XXSP,2013-09-15 16:31:00,
2013-09-15 12:36:00,78.6,65.0,30.13,North,0,1.4,1.9,63,0.00,,,0.00,WUHU21623XXSP,2013-09-15 16:36:00,
2013-09-15 12:41:00,79.7,65.6,30.13,WNW,292,0.0,1.7,62,0.00,,,0.00,WUHU21623XXSP,2013-09-15 16:41:00,
2013-09-15 12:46:00,80.4,65.3,30.13,WNW,292,0.0,1.7,60,0.00,,,0.00,WUHU21623XXSP,2013-09-15 16:46:00,
2013-09-15 12:51:00,79.5,64.9,30.13,NNE,22,0.0,1.7,61,0.00,,,0.00,WUHU21623XXSP,2013-09-15 16:51:00,
2013-09-15 12:57:00,79.3,65.2,30.13,North,0,0.0,1.3,62,0.00,,,0.00,WUHU21623XXSP,2013-09-15 16:57:00,
2013-09-15 13:02:00,79.7,65.1,30.13,WNW,292,1.7,1.9,61,0.00,,,0.00,WUHU21623XXSP,2013-09-15 17:02:00,
2013-09-15 13:07:00,79.9,65.3,30.12,WNW,292,0.0,1.9,61,0.00,,,0.00,WUHU21623XXSP,2013-09-15 17:07:00,
2013-09-15 13:12:00,80.2,65.2,30.13,North,0,0.0,1.9,60,0.00,,,0.00,WUHU21623XXSP,2013-09-15 17:12:00,
2013-09-15 13:17:00,79.7,65.6,30.12,West,270,1.7,1.9,62,0.00,,,0.00,WUHU21623XXSP,2013-09-15 17:17:00,
2013-09-15 13:22:00,80.8,65.6,30.12,West,270,0.0,1.9,60,0.00,,,0.00,WUHU21623XXSP,2013-09-15 17:22:00,
2013-09-15 13:27:00,80.4,65.3,30.12,NNE,22,1.2,1.9,60,0.00,,,0.00,WUHU21623XXSP,2013-09-15 17:27:00,
2013-09-15 13:32:00,79.5,64.9,30.12,WNW,292,0.0,1.3,61,0.00,,,0.00,WUHU21623XXSP,2013-09-15 17:32:00,
2013-09-15 13:37:00,78.8,65.2,30.11,North,0,0.0,1.3,63,0.00,,,0.00,WUHU21623XXSP,2013-09-15 17:37:00,
2013-09-15 13:43:00,79.0,64.9,30.11,North,0,0.0,0.0,62,0.00,,,0.00,WUHU21623XXSP,2013-09-15 17:43:00,
2013-09-15 13:48:00,78.6,65.4,30.11,West,270,0.0,0.0,64,0.00,,,0.00,WUHU21623XXSP,2013-09-15 17:48:00,
2013-09-15 13:53:00,79.5,65.8,30.11,SSW,202,4.4,5.1,63,0.00,,,0.00,WUHU21623XXSP,2013-09-15 17:53:00,
2013-09-15 13:58:00,79.0,64.9,30.11,WNW,292,0.0,5.1,62,0.00,,,0.00,WUHU21623XXSP,2013-09-15 17:58:00,
2013-09-15 14:03:00,78.6,65.0,30.11,WNW,292,0.0,5.1,63,0.00,,,0.00,WUHU21623XXSP,2013-09-15 18:03:00,
2013-09-15 14:08:00,80.8,66.5,30.11,North,0,0.0,1.7,62,0.00,,,0.00,WUHU21623XXSP,2013-09-15 18:08:00,
2013-09-15 14:13:00,80.4,65.3,30.11,North,0,0.0,1.7,60,0.00,,,0.00,WUHU21623XXSP,2013-09-15 18:13:00,
2013-09-15 14:18:00,80.2,65.6,30.10,SSW,202,0.0,0.0,61,0.00,,,0.00,WUHU21623XXSP,2013-09-15 18:18:00,
2013-09-15 14:23:00,81.9,65.6,30.10,NNE,22,0.0,1.7,58,0.00,,,0.00,WUHU21623XXSP,2013-09-15 18:23:00,
2013-09-15 14:28:00,80.8,65.6,30.10,West,270,0.0,1.7,60,0.00,,,0.00,WUHU21623XXSP,2013-09-15 18:28:00,
2013-09-15 14:33:00,79.9,65.3,30.10,North,0,0.0,0.0,61,0.00,,,0.00,WUHU21623XXSP,2013-09-15 18:33:00,
2013-09-15 14:38:00,79.3,64.3,30.09,North,0,1.2,1.3,60,0.00,,,0.00,WUHU21623XXSP,2013-09-15 18:38:00,
2013-09-15 14:43:00,79.3,64.3,30.10,WNW,292,0.0,1.3,60,0.00,,,0.00,WUHU21623XXSP,2013-09-15 18:43:00,
2013-09-15 14:48:00,79.5,65.4,30.09,NNE,22,1.4,1.7,62,0.00,,,0.00,WUHU21623XXSP,2013-09-15 18:48:00,
2013-09-15 14:53:00,81.1,64.9,30.09,East,90,3.3,3.8,58,0.00,,,0.00,WUHU21623XXSP,2013-09-15 18:53:00,
2013-09-15 14:58:00,82.6,65.7,30.09,West,270,2.9,3.8,57,0.00,,,0.00,WUHU21623XXSP,2013-09-15 18:58:00,
2013-09-15 15:03:00,83.1,64.2,30.09,NNE,22,0.0,3.8,53,0.00,,,0.00,WUHU21623XXSP,2013-09-15 19:03:00,
2013-09-15 15:09:00,82.8,63.8,30.08,North,0,0.0,3.3,53,0.00,,,0.00,WUHU21623XXSP,2013-09-15 19:09:00,
2013-09-15 15:14:00,83.3,64.9,30.09,South,180,2.3,2.7,54,0.00,,,0.00,WUHU21623XXSP,2013-09-15 19:14:00,
2013-09-15 15:19:00,82.0,63.6,30.08,WNW,292,0.0,2.7,54,0.00,,,0.00,WUHU21623XXSP,2013-09-15 19:19:00,
2013-09-15 15:24:00,81.9,64.0,30.08,SSW,202,0.0,2.7,55,0.00,,,0.00,WUHU21623XXSP,2013-09-15 19:24:00,
2013-09-15 15:29:00,81.5,63.2,30.08,SSW,202,1.7,1.9,54,0.00,,,0.00,WUHU21623XXSP,2013-09-15 19:29:00,
2013-09-15 15:34:00,82.8,63.8,30.08,WNW,292,0.0,1.9,53,0.00,,,0.00,WUHU21623XXSP,2013-09-15 19:34:00,
2013-09-15 15:39:00,82.9,64.5,30.08,West,270,2.1,2.4,54,0.00,,,0.00,WUHU21623XXSP,2013-09-15 19:39:00,
2013-09-15 15:44:00,83.1,64.2,30.08,WNW,292,0.0,2.4,53,0.00,,,0.00,WUHU21623XXSP,2013-09-15 19:44:00,
2013-09-15 15:49:00,83.8,65.4,30.08,WNW,292,0.0,2.4,54,0.00,,,0.00,WUHU21623XXSP,2013-09-15 19:49:00,
2013-09-15 15:54:00,83.5,64.5,30.08,WNW,292,0.0,1.3,53,0.00,,,0.00,WUHU21623XXSP,2013-09-15 19:54:00,
2013-09-15 15:59:00,83.1,64.2,30.08,West,270,0.0,1.7,53,0.00,,,0.00,WUHU21623XXSP,2013-09-15 19:59:00,
2013-09-15 16:04:00,82.8,64.8,30.07,West,270,0.0,1.7,55,0.00,,,0.00,WUHU21623XXSP,2013-09-15 20:04:00,
2013-09-15 16:09:00,82.6,64.7,30.08,SSW,202,2.3,2.7,55,0.00,,,0.00,WUHU21623XXSP,2013-09-15 20:09:00,
2013-09-15 16:14:00,82.6,64.7,30.08,West,270,0.0,2.7,55,0.00,,,0.00,WUHU21623XXSP,2013-09-15 20:14:00,
2013-09-15 16:19:00,82.2,64.8,30.08,WNW,292,0.0,2.7,56,0.00,,,0.00,WUHU21623XXSP,2013-09-15 20:19:00,
2013-09-15 16:24:00,82.0,64.7,30.08,WNW,292,0.0,0.0,56,0.00,,,0.00,WUHU21623XXSP,2013-09-15 20:24:00,
2013-09-15 16:29:00,81.7,63.8,30.08,North,0,0.9,1.0,55,0.00,,,0.00,WUHU21623XXSP,2013-09-15 20:29:00,
2013-09-15 16:34:00,82.0,64.2,30.08,North,0,0.0,1.0,55,0.00,,,0.00,WUHU21623XXSP,2013-09-15 20:34:00,
2013-09-15 16:39:00,82.2,64.8,30.07,SSW,202,3.5,4.1,56,0.00,,,0.00,WUHU21623XXSP,2013-09-15 20:39:00,
2013-09-15 16:44:00,81.7,63.8,30.08,West,270,0.9,4.1,55,0.00,,,0.00,WUHU21623XXSP,2013-09-15 20:44:00,
2013-09-15 16:49:00,81.7,64.4,30.08,WNW,292,0.9,4.1,56,0.00,,,0.00,WUHU21623XXSP,2013-09-15 20:49:00,
2013-09-15 16:54:00,81.7,64.4,30.08,WNW,292,0.0,1.0,56,0.00,,,0.00,WUHU21623XXSP,2013-09-15 20:54:00,
2013-09-15 16:59:00,81.3,64.0,30.08,WNW,292,0.0,1.3,56,0.00,,,0.00,WUHU21623XXSP,2013-09-15 20:59:00,
2013-09-15 17:04:00,80.8,64.1,30.07,North,0,0.0,1.3,57,0.00,,,0.00,WUHU21623XXSP,2013-09-15 21:04:00,
2013-09-15 17:09:00,80.1,64.0,30.08,North,0,0.0,0.0,58,0.00,,,0.00,WUHU21623XXSP,2013-09-15 21:09:00,
2013-09-15 17:14:00,79.2,64.2,30.08,WNW,292,0.0,0.0,60,0.00,,,0.00,WUHU21623XXSP,2013-09-15 21:14:00,
2013-09-15 17:20:00,78.8,64.3,30.08,WNW,292,0.0,0.0,61,0.00,,,0.00,WUHU21623XXSP,2013-09-15 21:20:00,
2013-09-15 17:25:00,78.6,64.1,30.08,NNE,22,0.0,0.0,61,0.00,,,0.00,WUHU21623XXSP,2013-09-15 21:25:00,
2013-09-15 17:30:00,78.6,65.0,30.08,WNW,292,0.0,0.0,63,0.00,,,0.00,WUHU21623XXSP,2013-09-15 21:30:00,
2013-09-15 17:35:00,78.6,65.0,30.08,NNE,22,0.0,0.0,63,0.00,,,0.00,WUHU21623XXSP,2013-09-15 21:35:00,
2013-09-15 17:40:00,78.6,64.5,30.08,North,0,0.0,0.0,62,0.00,,,0.00,WUHU21623XXSP,2013-09-15 21:40:00,
2013-09-15 17:45:00,78.6,64.5,30.08,WNW,292,0.0,0.0,62,0.00,,,0.00,WUHU21623XXSP,2013-09-15 21:45:00,
2013-09-15 17:50:00,78.6,65.4,30.08,West,270,0.0,0.0,64,0.00,,,0.00,WUHU21623XXSP,2013-09-15 21:50:00,
2013-09-15 17:55:00,78.4,65.7,30.08,North,0,0.0,0.0,65,0.00,,,0.00,WUHU21623XXSP,2013-09-15 21:55:00,
2013-09-15 18:00:00,78.1,65.3,30.08,WNW,292,0.0,0.0,65,0.00,,,0.00,WUHU21623XXSP,2013-09-15 22:00:00,
2013-09-15 18:05:00,77.9,66.0,30.07,SSW,202,0.0,0.0,67,0.00,,,0.00,WUHU21623XXSP,2013-09-15 22:05:00,
2013-09-15 18:11:00,77.5,66.1,30.07,SSW,202,0.0,0.0,68,0.00,,,0.00,WUHU21623XXSP,2013-09-15 22:11:00,
2013-09-15 18:16:00,76.8,65.9,30.07,South,180,0.0,0.0,69,0.00,,,0.00,WUHU21623XXSP,2013-09-15 22:16:00,
2013-09-15 18:21:00,76.3,65.8,30.07,South,180,0.0,0.0,70,0.00,,,0.00,WUHU21623XXSP,2013-09-15 22:21:00,
2013-09-15 18:26:00,75.9,65.9,30.07,ESE,112,0.0,0.0,71,0.00,,,0.00,WUHU21623XXSP,2013-09-15 22:26:00,
2013-09-15 18:31:00,75.9,66.3,30.07,South,180,0.0,0.0,72,0.00,,,0.00,WUHU21623XXSP,2013-09-15 22:31:00,
2013-09-15 18:36:00,75.9,66.3,30.08,SSW,202,0.0,0.0,72,0.00,,,0.00,WUHU21623XXSP,2013-09-15 22:36:00,
2013-09-15 18:41:00,75.7,66.5,30.08,South,180,0.0,0.0,73,0.00,,,0.00,WUHU21623XXSP,2013-09-15 22:41:00,
2013-09-15 18:46:00,75.6,66.7,30.08,South,180,0.0,0.0,74,0.00,,,0.00,WUHU21623XXSP,2013-09-15 22:46:00,
2013-09-15 18:51:00,75.2,67.1,30.08,South,180,0.0,0.0,76,0.00,,,0.00,WUHU21623XXSP,2013-09-15 22:51:00,
2013-09-15 18:56:00,75.0,66.6,30.08,East,90,0.0,0.0,75,0.00,,,0.00,WUHU21623XXSP,2013-09-15 22:56:00,
2013-09-15 19:01:00,74.7,66.6,30.08,East,90,0.0,0.0,76,0.00,,,0.00,WUHU21623XXSP,2013-09-15 23:01:00,
2013-09-15 19:06:00,74.3,66.7,30.08,ESE,112,0.0,0.0,77,0.00,,,0.00,WUHU21623XXSP,2013-09-15 23:06:00,
2013-09-15 19:11:00,74.1,66.5,30.08,ESE,112,0.0,0.0,77,0.00,,,0.00,WUHU21623XXSP,2013-09-15 23:11:00,
2013-09-15 19:16:00,73.8,66.1,30.08,East,90,0.0,0.0,77,0.00,,,0.00,WUHU21623XXSP,2013-09-15 23:16:00,
2013-09-15 19:21:00,73.4,66.2,30.08,ESE,112,0.0,0.0,78,0.00,,,0.00,WUHU21623XXSP,2013-09-15 23:21:00,
2013-09-15 19:26:00,73.0,66.2,30.08,East,90,0.0,0.0,79,0.00,,,0.00,WUHU21623XXSP,2013-09-15 23:26:00,
2013-09-15 19:31:00,72.7,65.8,30.08,ESE,112,0.0,0.0,79,0.00,,,0.00,WUHU21623XXSP,2013-09-15 23:31:00,
2013-09-15 19:36:00,72.3,65.5,30.08,East,90,0.0,0.0,79,0.00,,,0.00,WUHU21623XXSP,2013-09-15 23:36:00,
2013-09-15 19:41:00,71.8,64.9,30.08,ESE,112,0.0,0.0,79,0.00,,,0.00,WUHU21623XXSP,2013-09-15 23:41:00,
2013-09-15 19:46:00,71.2,64.8,30.08,ESE,112,1.2,1.3,80,0.00,,,0.00,WUHU21623XXSP,2013-09-15 23:46:00,
2013-09-15 19:51:00,71.1,64.6,30.08,ESE,112,0.0,1.3,80,0.00,,,0.00,WUHU21623XXSP,2013-09-15 23:51:00,
2013-09-15 19:56:00,70.7,64.2,30.08,ESE,112,0.0,1.3,80,0.00,,,0.00,WUHU21623XXSP,2013-09-15 23:56:00,
2013-09-15 20:01:00,70.0,63.8,30.08,South,180,0.0,0.0,81,0.00,,,0.00,WUHU21623XXSP,2013-09-16 00:01:00,
2013-09-15 20:06:00,69.6,63.5,30.08,ESE,112,0.0,0.0,81,0.00,,,0.00,WUHU21623XXSP,2013-09-16 00:06:00,
2013-09-15 20:11:00,69.3,63.2,30.08,East,90,0.0,0.0,81,0.00,,,0.00,WUHU21623XXSP,2013-09-16 00:11:00,
2013-09-15 20:16:00,68.9,63.2,30.08,East,90,0.0,0.0,82,0.00,,,0.00,WUHU21623XXSP,2013-09-16 00:16:00,
2013-09-15 20:21:00,68.5,62.8,30.08,ESE,112,0.0,0.0,82,0.00,,,0.00,WUHU21623XXSP,2013-09-16 00:21:00,
2013-09-15 20:26:00,68.2,62.5,30.08,ESE,112,0.0,0.0,82,0.00,,,0.00,WUHU21623XXSP,2013-09-16 00:26:00,
2013-09-15 20:31:00,67.6,62.3,30.08,ESE,112,0.0,0.0,83,0.00,,,0.00,WUHU21623XXSP,2013-09-16 00:31:00,
2013-09-15 20:36:00,67.6,62.3,30.08,ESE,112,0.0,0.0,83,0.00,,,0.00,WUHU21623XXSP,2013-09-16 00:36:00,
2013-09-15 20:42:00,67.3,62.0,30.08,ESE,112,0.0,0.0,83,0.00,,,0.00,WUHU21623XXSP,2013-09-16 00:42:00,
2013-09-15 20:47:00,66.9,61.9,30.08,East,90,1.2,1.3,84,0.00,,,0.00,WUHU21623XXSP,2013-09-16 00:47:00,
2013-09-15 20:52:00,66.7,61.7,30.08,East,90,1.2,1.7,84,0.00,,,0.00,WUHU21623XXSP,2013-09-16 00:52:00,
2013-09-15 20:57:00,66.6,61.6,30.08,East,90,0.0,1.7,84,0.00,,,0.00,WUHU21623XXSP,2013-09-16 00:57:00,
2013-09-15 21:02:00,66.4,61.4,30.08,ESE,112,0.0,1.3,84,0.00,,,0.00,WUHU21623XXSP,2013-09-16 01:02:00,
2013-09-15 21:07:00,66.2,61.2,30.09,East,90,0.0,0.0,84,0.00,,,0.00,WUHU21623XXSP,2013-09-16 01:07:00,
2013-09-15 21:12:00,65.8,61.2,30.09,ESE,112,0.0,0.0,85,0.00,,,0.00,WUHU21623XXSP,2013-09-16 01:12:00,
2013-09-15 21:17:00,65.7,61.0,30.09,East,90,0.0,0.0,85,0.00,,,0.00,WUHU21623XXSP,2013-09-16 01:17:00,
2013-09-15 21:22:00,65.5,60.8,30.09,East,90,0.0,0.0,85,0.00,,,0.00,WUHU21623XXSP,2013-09-16 01:22:00,
2013-09-15 21:27:00,65.3,61.0,30.09,East,90,0.0,0.0,86,0.00,,,0.00,WUHU21623XXSP,2013-09-16 01:27:00,
2013-09-15 21:32:00,65.1,60.8,30.09,East,90,0.0,0.0,86,0.00,,,0.00,WUHU21623XXSP,2013-09-16 01:32:00,
2013-09-15 21:37:00,65.1,60.8,30.09,East,90,1.4,1.7,86,0.00,,,0.00,WUHU21623XXSP,2013-09-16 01:37:00,
2013-09-15 21:42:00,64.9,61.0,30.09,East,90,0.0,1.7,87,0.00,,,0.00,WUHU21623XXSP,2013-09-16 01:42:00,
2013-09-15 21:47:00,64.8,60.8,30.09,East,90,0.0,1.7,87,0.00,,,0.00,WUHU21623XXSP,2013-09-16 01:47:00,
2013-09-15 21:52:00,64.6,60.7,30.10,East,90,0.0,0.0,87,0.00,,,0.00,WUHU21623XXSP,2013-09-16 01:52:00,
2013-09-15 21:57:00,64.6,60.7,30.09,East,90,0.0,0.0,87,0.00,,,0.00,WUHU21623XXSP,2013-09-16 01:57:00,
2013-09-15 22:02:00,64.6,60.7,30.09,ESE,112,0.0,0.0,87,0.00,,,0.00,WUHU21623XXSP,2013-09-16 02:02:00,
2013-09-15 22:07:00,64.6,60.7,30.09,ESE,112,0.0,0.0,87,0.00,,,0.00,WUHU21623XXSP,2013-09-16 02:07:00,
2013-09-15 22:12:00,64.4,60.5,30.09,ESE,112,0.0,0.0,87,0.00,,,0.00,WUHU21623XXSP,2013-09-16 02:12:00,
2013-09-15 22:17:00,64.2,60.3,30.09,East,90,0.0,0.0,87,0.00,,,0.00,WUHU21623XXSP,2013-09-16 02:17:00,
2013-09-15 22:22:00,64.2,60.3,30.09,NNE,22,0.0,0.0,87,0.00,,,0.00,WUHU21623XXSP,2013-09-16 02:22:00,
2013-09-15 22:27:00,64.0,60.1,30.09,NNE,22,0.0,0.0,87,0.00,,,0.00,WUHU21623XXSP,2013-09-16 02:27:00,
2013-09-15 22:32:00,64.0,60.1,30.09,NNE,22,0.0,0.0,87,0.00,,,0.00,WUHU21623XXSP,2013-09-16 02:32:00,
2013-09-15 22:37:00,63.9,60.3,30.10,ESE,112,0.0,0.0,88,0.00,,,0.00,WUHU21623XXSP,2013-09-16 02:37:00,
2013-09-15 22:42:00,63.7,60.1,30.10,South,180,0.0,0.0,88,0.00,,,0.00,WUHU21623XXSP,2013-09-16 02:42:00,
2013-09-15 22:47:00,63.7,60.1,30.10,ESE,112,0.0,0.0,88,0.00,,,0.00,WUHU21623XXSP,2013-09-16 02:47:00,
2013-09-15 22:52:00,63.7,60.1,30.10,East,90,0.0,0.0,88,0.00,,,0.00,WUHU21623XXSP,2013-09-16 02:52:00,
2013-09-15 22:57:00,63.5,59.9,30.10,ESE,112,0.0,0.0,88,0.00,,,0.00,WUHU21623XXSP,2013-09-16 02:57:00,
2013-09-15 23:03:00,63.3,59.8,30.10,East,90,0.0,0.0,88,0.00,,,0.00,WUHU21623XXSP,2013-09-16 03:03:00,
2013-09-15 23:08:00,63.1,59.6,30.10,East,90,0.0,0.0,88,0.00,,,0.00,WUHU21623XXSP,2013-09-16 03:08:00,
2013-09-15 23:13:00,63.3,59.8,30.10,ESE,112,0.0,0.0,88,0.00,,,0.00,WUHU21623XXSP,2013-09-16 03:13:00,
2013-09-15 23:18:00,63.3,59.8,30.10,East,90,0.0,0.0,88,0.00,,,0.00,WUHU21623XXSP,2013-09-16 03:18:00,
2013-09-15 23:23:00,63.1,59.6,30.10,ESE,112,0.0,0.0,88,0.00,,,0.00,WUHU21623XXSP,2013-09-16 03:23:00,
2013-09-15 23:28:00,63.1,59.6,30.10,ESE,112,0.0,0.0,88,0.00,,,0.00,WUHU21623XXSP,2013-09-16 03:28:00,
2013-09-15 23:33:00,63.1,59.6,30.10,ESE,112,0.0,0.0,88,0.00,,,0.00,WUHU21623XXSP,2013-09-16 03:33:00,
2013-09-15 23:38:00,63.0,59.4,30.10,South,180,0.0,0.0,88,0.00,,,0.00,WUHU21623XXSP,2013-09-16 03:38:00,
2013-09-15 23:43:00,63.0,59.4,30.09,ESE,112,0.0,0.0,88,0.00,,,0.00,WUHU21623XXSP,2013-09-16 03:43:00,
2013-09-15 23:48:00,62.8,59.6,30.09,East,90,0.0,0.0,89,0.00,,,0.00,WUHU21623XXSP,2013-09-16 03:48:00,
2013-09-15 23:53:00,63.0,59.7,30.09,East,90,0.0,0.0,89,0.00,,,0.00,WUHU21623XXSP,2013-09-16 03:53:00,
2013-09-15 23:58:00,63.3,60.1,30.09,North,0,0.0,0.0,89,0.00,,,0.00,WUHU21623XXSP,2013-09-16 03:58:00,